Location: Bayshore Village Mobile Home Park
(26.6945°N, 81.8642°W)
Time: 23:25:06
(UTC+00:00)

CZ-4C R/B - Pass Details

Date: 17 June 2021
Orbit: 605 x 1396 km, 63.4° (Epoch: 05 August)

Event Time Altitude Azimuth Distance (km) Brightness Sun altitude
Exits shadow 10:04:46 - 268° (W) 2,525 4.1 -6.6°
Reaches altitude 10° 10:06:51 10° 288° (WNW) 2,127 3.9 -6.2°
Maximum altitude 10:08:52 12° 313° (NW) 2,034 4.0 -5.8°
Drops below altitude 10° 10:11:00 10° 338° (NNW) 2,283 4.6 -5.4°
Sets 10:15:12 0° 7° (N) 3,402 5.9 -4.5°
